Regional Weather Roundup
Issued by NWS Goodland, KS

Home | Current Version | Previous Version | Graphics & Text | Print | Product List | Glossary On
Versions: 1 2 3 4 5 6 7 8 9 10 11 12 13 14 15 16 17 18 19 20 21 22 23 24 25 26 27 28 29 30 31 32 33 34 35 36 37 38 39 40 41 42 43 44 45 46 47 48 49 50
000
ASUS43 KGLD 282159
RWRGLD

GOODLAND FORECAST AREA HOURLY WEATHER ROUNDUP
NATIONAL WEATHER SERVICE GOODLAND KS
400 PM MDT THU MAY 28 2015

...OFFICIAL OBSERVATIONS...

CITY           SKY/WX    TMP DP  RH WIND       PRES   REMARKS
GOODLAND KS    CLOUDY    66  59  78 S9        29.92S
HILL CITY KS   PTSUNNY   75  60  59 S10G20    29.92F
IMPERIAL NEB   MOSUNNY   73  60  63 SE15      29.89F
MCCOOK NEB     PTSUNNY   75  59  57 S21G26    29.89F
AKRON CO       TSTM      54  49  83 N31G40    29.99R
BURLINGTON CO  CLOUDY    65  58  78 SE23G31   29.92F THUNDER
LIMON CO       CLOUDY    63  43  48 N13       29.98S THUNDER
$$

...UNOFFICIAL OBSERVATIONS...

CITY           SKY/WX    TMP DP  RH WIND       PRES   REMARKS
COLBY KS       MOSUNNY   70  61  73 S13G23    29.90F
LENORA KS        N/A     74  32  21 MISG        N/A
NORTON KS      MOSUNNY   75  54  46 S14       29.91F
$$



USA.gov is the U.S. government's official web portal to all federal, state and local government web resources and services.